カタログに戻る

COSMOS 2251 DEB

運用中LEO
NORAD 34968·DEBRIS·🇷🇺 Russia

打ち上げ Jun 16, 1993 から Plesetsk Cosmodrome

Loading…

次のパス (今後24時間)

TLE

最新Source: Space-Track

元期: Sep 14, 2026, 12:04 UTC

1 34968U 93036AEX 26257.50343870  .00000472  00000-0  10024-3 0  9996
2 34968  74.0367  81.2194 0085713 132.8500 227.9909 14.59749434925012

AllMySatでCOSMOS 2251 DEBをリアルタイム追跡

Download on the App Store